Waarnemingen

Advertentie
Mijn weer
Brüssel, België (6451): temperatuur & dauwpunt: 11.11.2019 04:00:00 - 17.11.2019 04:00:00 (CET)Brüssel, België (6451): windsnelheid & windstoten: 11.11.2019 04:00:00 - 17.11.2019 04:00:00 (CET)Brüssel, België (6451): windrichting: 11.11.2019 04:00:00 - 17.11.2019 04:00:00 (CET)Brüssel, België (6451): luchtdruk: 11.11.2019 04:00:00 - 17.11.2019 04:00:00 (CET)Brüssel, België (6451): zicht: 11.11.2019 04:00:00 - 17.11.2019 04:00:00 (CET)
Datum & Tijd tt [°C] td [°C] ff [km/u] ff [kn] fx [km/u] fx [kn] dd ppp [hPa] vv [km]
17.11.2019 04:00:00 2,3 1,3 8 4 - - ZZO 1011,4 10
17.11.2019 03:00:00 3,4 1,9 8 4 11 6 ZZO 1011,6 10
17.11.2019 02:00:00 3,9 2,5 8 4 14 8 Z 1011,2 10
17.11.2019 01:00:00 5,2 2,7 9 5 - - ZZO 1011,4 10
17.11.2019 00:00:00 5,3 2,9 9 5 11 6 ZZO 1011,1 10
16.11.2019 23:00:00 5,1 3,0 5 3 7 4 ZZO 1011,2 10
16.11.2019 22:00:00 4,9 3,4 4 2 - - ZZO 1011,1 10
16.11.2019 21:00:00 5,5 2,9 2 1 7 4 Z 1010,9 10
16.11.2019 20:00:00 5,3 3,2 4 2 7 4 ZW 1010,8 10
16.11.2019 19:00:00 5,3 3,3 5 3 - - Z 1010,1 10
16.11.2019 18:00:00 5,8 2,1 8 4 11 6 Z 1009,4 10
16.11.2019 17:00:00 5,5 1,8 5 3 11 6 ZZO 1009,0 10
16.11.2019 16:00:00 5,9 2,7 8 4 - - ZZO 1008,3 10
16.11.2019 15:00:00 5,8 2,6 9 5 25 14 Z 1008,3 10
16.11.2019 14:00:00 6,3 2,5 13 7 22 12 Z 1008,5 10
16.11.2019 13:00:00 5,9 2,3 15 8 - - Z 1008,2 10
16.11.2019 12:00:00 5,2 2,2 13 7 18 10 ZZO 1008,5 10
16.11.2019 11:00:00 4,2 1,5 13 7 18 10 Z 1008,3 10
16.11.2019 10:00:00 3,1 1,0 5 3 - - Z 1008,0 10
16.11.2019 09:00:00 1,2 -0,4 11 6 14 8 ZZW 1007,5 10
16.11.2019 08:00:00 1,4 -0,3 8 4 11 6 Z 1006,7 10
16.11.2019 07:00:00 1,4 -0,2 9 5 - - Z 1006,1 10
16.11.2019 06:00:00 1,5 0,0 11 6 14 8 ZZO 1005,5 10
16.11.2019 05:00:00 1,8 0,1 9 5 18 10 ZZO 1005,4 10
16.11.2019 04:00:00 2,0 0,1 9 5 - - ZZO 1005,4 10
16.11.2019 03:00:00 1,9 0,2 8 4 14 8 ZO 1005,4 10
16.11.2019 02:00:00 2,2 0,3 9 5 14 8 ZO 1004,9 10
16.11.2019 01:00:00 2,3 0,6 11 6 - - OZO 1005,0 10
16.11.2019 00:00:00 2,0 0,3 8 4 11 6 ZO 1004,4 10
15.11.2019 23:00:00 2,5 0,7 8 4 11 6 O 1003,9 10
15.11.2019 22:00:00 3,2 0,9 8 4 - - O 1003,3 10
15.11.2019 21:00:00 4,0 0,9 8 4 29 16 ZZO 1002,9 10
15.11.2019 20:00:00 5,5 1,9 16 9 29 16 Z 1002,6 10
15.11.2019 19:00:00 5,1 2,5 8 4 - - ZO 1001,6 10
15.11.2019 18:00:00 4,9 2,6 9 5 14 8 OZO 1001,2 5
15.11.2019 17:00:00 4,6 2,2 9 5 18 10 O 1000,4 6
15.11.2019 16:00:00 4,5 2,2 8 4 - - O 1000,0 6
15.11.2019 15:00:00 4,5 2,0 11 6 22 12 O 999,9 6
15.11.2019 14:00:00 3,9 1,5 11 6 18 10 ONO 999,6 6
15.11.2019 13:00:00 3,6 1,5 11 6 - - O 999,7 5
15.11.2019 12:00:00 3,2 1,5 16 9 29 16 NO 999,4 4,8
15.11.2019 11:00:00 2,8 1,4 18 10 25 14 NNO 999,4 4,5
15.11.2019 10:00:00 2,6 1,3 15 8 - - N 999,9 4,2
15.11.2019 09:00:00 2,5 1,2 15 8 25 14 NO 1000,2 4,5
15.11.2019 08:00:00 2,4 1,3 13 7 22 12 NO 998,9 6
15.11.2019 07:00:00 2,5 1,5 11 6 - - NO 999,1 7
15.11.2019 06:00:00 2,5 1,6 13 7 22 12 NO 999,7 10
15.11.2019 05:00:00 2,5 1,8 11 6 18 10 NNO 999,3 10
15.11.2019 04:00:00 2,9 2,1 13 7 - - NNO 1000,3 10
15.11.2019 03:00:00 2,7 2,1 8 4 11 6 NNO 1001,4 10
15.11.2019 02:00:00 3,0 2,3 5 3 7 4 NNO 1001,8 10
15.11.2019 01:00:00 3,9 2,9 4 2 - - N 1002,3 10
15.11.2019 00:00:00 3,7 2,7 2 1 4 2 NNW 1002,5 10
14.11.2019 23:00:00 4,2 2,9 4 2 7 4 O 1002,9 10
14.11.2019 22:00:00 4,4 3,1 5 3 - - O 1002,9 10
14.11.2019 21:00:00 4,5 3,0 8 4 11 6 NNO 1002,9 10
14.11.2019 20:00:00 5,1 3,3 4 2 11 6 OZO 1003,2 10
14.11.2019 19:00:00 5,0 2,9 8 4 - - OZO 1002,5 10
14.11.2019 18:00:00 5,0 2,9 4 2 14 8 ZO 1002,6 10
14.11.2019 17:00:00 5,8 3,0 9 5 18 10 ZO 1001,6 10
14.11.2019 16:00:00 6,2 3,2 9 5 - - ZO 1001,6 10
14.11.2019 15:00:00 6,2 3,0 15 8 22 12 ZZO 1001,0 10
14.11.2019 14:00:00 6,5 3,3 11 6 25 14 ZZO 1000,5 10
14.11.2019 13:00:00 5,9 3,2 16 9 - - ZZO 1000,5 10
14.11.2019 12:00:00 5,6 3,8 18 10 29 16 ZZO 1000,4 10
14.11.2019 11:00:00 5,1 3,6 18 10 32 18 ZZO 1000,0 10
14.11.2019 10:00:00 5,6 3,3 15 8 - - ZZO 999,0 10
14.11.2019 09:00:00 5,6 1,7 18 10 36 19 ZO 998,3 10
14.11.2019 08:00:00 5,9 2,6 24 13 36 19 ZO 997,5 10
14.11.2019 07:00:00 5,8 2,7 24 13 - - ZO 997,0 10
14.11.2019 06:00:00 5,6 3,1 22 12 32 18 ZO 996,4 10
14.11.2019 05:00:00 5,2 3,3 18 10 29 16 OZO 996,4 10
14.11.2019 04:00:00 4,7 3,3 15 8 - - OZO 997,0 10
14.11.2019 03:00:00 4,8 3,3 11 6 22 12 OZO 997,8 10
14.11.2019 02:00:00 5,3 3,6 13 7 22 12 ZO 998,3 10
14.11.2019 01:00:00 5,4 3,7 15 8 - - ZZO 998,6 10
14.11.2019 00:00:00 5,7 4,4 15 8 25 14 ZZO 998,9 10
13.11.2019 23:00:00 5,6 4,1 15 8 29 16 Z 999,4 10
13.11.2019 22:00:00 5,8 4,3 18 10 - - Z 1000,0 10
13.11.2019 21:00:00 5,9 4,5 16 9 22 12 Z 1000,3 10
13.11.2019 20:00:00 6,0 4,7 9 5 25 14 Z 1000,7 10
13.11.2019 19:00:00 6,7 4,8 15 8 - - ZW 1001,4 4,0
13.11.2019 18:00:00 6,7 4,7 11 6 18 10 Z 1001,2 10
13.11.2019 17:00:00 7,2 4,2 11 6 25 14 ZZW 1001,2 10
13.11.2019 16:00:00 8,2 4,3 16 9 - - ZZW 1001,2 10
13.11.2019 15:00:00 8,5 5,0 15 8 25 14 ZW 1001,5 10
13.11.2019 14:00:00 8,2 5,4 18 10 25 14 ZW 1001,5 10
13.11.2019 13:00:00 7,8 5,3 18 10 - - ZW 1001,9 10
13.11.2019 12:00:00 7,5 5,9 15 8 22 12 ZW 1002,0 10
13.11.2019 11:00:00 6,9 5,3 15 8 29 16 WZW 1002,0 10
13.11.2019 10:00:00 6,7 5,0 18 10 - - WZW 1001,5 10
13.11.2019 09:00:00 5,9 4,7 15 8 32 18 ZW 1001,1 10
13.11.2019 08:00:00 5,5 4,5 16 9 36 19 ZW 1000,5 10
13.11.2019 07:00:00 5,7 4,5 21 11 - - ZW 1000,3 10
13.11.2019 06:00:00 5,5 4,5 21 11 25 14 ZZW 1000,1 10
13.11.2019 05:00:00 5,3 4,1 18 10 29 16 ZZW 999,7 10
13.11.2019 04:00:00 5,2 4,1 21 11 - - ZW 999,4 10
13.11.2019 03:00:00 5,0 4,4 18 10 32 18 ZW 999,3 10
13.11.2019 02:00:00 4,8 2,3 22 12 36 19 ZW 999,3 9
13.11.2019 01:00:00 4,6 3,0 24 13 - - ZZW 999,2 10
13.11.2019 00:00:00 4,9 3,0 28 15 40 21 ZW 999,2 10
12.11.2019 23:00:00 5,2 2,1 29 16 43 23 ZZW 999,9 10
12.11.2019 22:00:00 5,1 2,0 24 13 - - ZZW 999,9 10
12.11.2019 21:00:00 4,5 1,4 22 12 40 21 ZZW 999,6 10
12.11.2019 20:00:00 4,6 2,1 24 13 36 19 ZZW 999,6 10
12.11.2019 19:00:00 4,5 2,1 21 11 - - Z 1000,0 10
12.11.2019 18:00:00 5,0 2,5 16 9 32 18 ZZW 1000,3 10
12.11.2019 17:00:00 5,6 2,0 24 13 43 23 ZW 1000,5 10
12.11.2019 16:00:00 6,3 2,4 26 14 - - ZW 1000,4 10
12.11.2019 15:00:00 6,7 2,4 28 15 43 23 ZW 1000,5 10
12.11.2019 14:00:00 6,1 2,8 24 13 40 21 ZW 1001,1 10
12.11.2019 13:00:00 6,3 2,8 25 14 - - ZW 1001,1 20
12.11.2019 12:00:00 5,3 2,8 22 12 36 19 ZW 1001,1 10
12.11.2019 11:00:00 4,8 1,6 16 9 32 18 ZZW 1001,4 10
12.11.2019 10:00:00 3,8 1,6 21 11 - - ZW 1001,4 10
12.11.2019 09:00:00 3,8 2,0 24 13 36 19 Z 1000,5 10
12.11.2019 08:00:00 4,4 2,5 28 15 40 21 ZW 1001,1 10
12.11.2019 07:00:00 4,6 2,7 16 9 - - ZW 1001,5 10
12.11.2019 06:00:00 4,5 2,8 21 11 36 19 ZZW 1001,6 10
12.11.2019 05:00:00 4,3 2,5 21 11 29 16 ZZW 1002,1 10
12.11.2019 04:00:00 4,0 2,8 18 10 - - ZZW 1002,3 10
12.11.2019 03:00:00 4,4 2,5 22 12 36 19 ZZW 1002,7 10
12.11.2019 02:00:00 4,9 2,7 26 14 36 19 ZW 1002,7 10
12.11.2019 01:00:00 4,5 2,8 21 11 - - ZZW 1003,0 10
12.11.2019 00:00:00 4,4 2,7 22 12 29 16 ZZW 1003,1 10
11.11.2019 23:00:00 4,8 3,0 16 9 22 12 ZZW 1002,9 10
11.11.2019 22:00:00 4,8 3,4 16 9 - - ZZW 1002,9 10
11.11.2019 21:00:00 4,7 3,4 15 8 22 12 ZZW 1002,8 10
11.11.2019 20:00:00 5,0 3,8 15 8 22 12 ZW 1002,7 10
11.11.2019 19:00:00 5,7 4,0 13 7 - - ZW 1002,6 10
11.11.2019 18:00:00 6,1 4,5 13 7 29 16 WZW 1002,0 10
11.11.2019 17:00:00 6,1 4,8 16 9 29 16 ZZW 1001,6 10
11.11.2019 16:00:00 6,2 5,0 18 10 - - ZW 1001,4 10
11.11.2019 15:00:00 5,9 4,2 29 16 47 25 ZZW 1001,4 10
11.11.2019 14:00:00 5,8 3,9 28 15 54 29 ZZW 1001,7 10
11.11.2019 13:00:00 6,3 4,2 26 14 - - Z 1002,4 10
11.11.2019 12:00:00 6,7 3,3 29 16 47 25 Z 1003,6 10
11.11.2019 11:00:00 7,1 3,6 29 16 50 27 ZZW 1004,1 10
11.11.2019 10:00:00 6,9 3,7 28 15 - - Z 1004,8 10
11.11.2019 09:00:00 6,0 3,9 21 11 32 18 Z 1005,6 10
11.11.2019 08:00:00 5,8 3,9 18 10 22 12 Z 1006,9 10
11.11.2019 07:00:00 5,5 3,8 13 7 - - Z 1008,0 10
11.11.2019 06:00:00 5,5 3,8 21 11 29 16 Z 1008,4 10
11.11.2019 05:00:00 5,4 3,7 21 11 29 16 Z 1010,0 10
11.11.2019 04:00:00 4,8 3,5 16 9 - - Z 1011,4 10

tt = temperatuur
td = dauwpunt
ff = windsnelheid
fx = windstoten
dd = windrichting
ppp = luchtdruk
vv = zicht

Weerstations in de omgeving